Location: ??????
(41.3164°N, 22.6615°E)
Time: 23:27:57
(UTC+00:00)

Cosmos 1626 Rocket - Pass Details

Date: 16 October 2021
Orbit: 603 x 631 km, 82.5° (Epoch: 05 December)

Event Time Altitude Azimuth Distance (km) Brightness Sun altitude
Rises 17:45:49 0° 354° (N) 2,873 7.2 -23.1°
Reaches altitude 10° 17:48:04 10° 356° (N) 1,962 6.3 -23.5°
Enters shadow 17:51:05 43° 9° (N) 850 4.2 -24.0°
